FW5860 Weather Reports


time (UTC)temp
F
wind
direction
speed
knots
gust
knots
rain 1hr
in
rain 24hr
in
rain mn
in
humidity
%
barometer
mb
20260504033043 44 84 0.0 0.0 0.00 0.00 0.00 76 1018.2
20260504031601 44 84 0.0 0.0 0.00 0.00 0.00 76 1018.2
20260504030042 44 84 0.0 0.0 0.00 0.00 0.00 75 1018.2
20260504024543 45 83 0.0 0.0 0.00 0.00 0.00 75 1018.2
20260504023039 45 84 0.0 0.0 0.00 0.00 0.00 75 1018.0
20260504021534 46 84 0.0 0.0 0.00 0.00 0.00 73 1017.9
20260504020038 47 84 0.0 0.0 0.00 0.00 0.00 72 1017.9
20260504014534 48 83 0.0 0.0 0.00 0.00 0.00 70 1017.6
20260504013033 49 84 0.0 0.0 0.00 0.00 0.00 69 1017.6
20260504011538 49 84 0.0 0.0 0.00 0.00 0.00 67 1017.5
20260504010043 50 82 0.0 0.0 0.00 0.00 0.00 66 1017.3
20260504004537 52 82 0.0 0.0 0.00 0.00 0.00 63 1017.2
20260504003043 53 82 0.0 0.0 0.00 0.00 0.00 60 1017.1
20260504001535 55 82 0.0 0.9 0.00 0.00 0.00 57 1017.0
20260504000034 56 170 0.0 0.9 0.00 0.00 0.00 54 1016.9
20260503234534 57 347 0.0 0.9 0.00 0.00 0.00 52 1016.8
20260503233033 58 290 0.0 1.7 0.00 0.00 0.00 51 1016.8
20260503231545 58 314 0.0 0.9 0.00 0.00 0.00 50 1016.8
20260503230033 59 300 0.0 0.9 0.00 0.00 0.00 49 1016.8
20260503224531 59 232 0.0 2.6 0.00 0.00 0.00 48 1016.8
20260503223033 60 285 0.9 4.3 0.00 0.00 0.00 48 1016.9
20260503221536 59 294 0.9 4.3 0.00 0.00 0.00 48 1016.9
20260503220038 59 291 0.0 4.3 0.00 0.00 0.00 49 1017.0
20260503214542 60 291 0.9 5.2 0.00 0.00 0.00 49 1017.0
20260503213052 60 291 0.0 3.5 0.00 0.00 0.00 48 1017.2
20260503211538 60 279 0.9 4.3 0.00 0.00 0.00 49 1017.3
20260503210032 59 269 0.9 3.5 0.00 0.00 0.00 49 1017.4
20260503204549 59 316 1.7 3.5 0.00 0.00 0.00 49 1017.5
20260503203033 59 338 0.9 6.1 0.00 0.00 0.00 48 1017.8
20260503201527 59 307 0.9 2.6 0.00 0.00 0.00 47 1018.0
20260503200029 59 300 0.0 7.8 0.00 0.00 0.00 47 1018.2
20260503194528 59 122 0.9 6.1 0.00 0.00 0.00 47 1018.4
20260503193026 59 297 0.9 6.1 0.00 0.00 0.00 47 1018.6
20260503191524 59 301 0.9 2.6 0.00 0.00 0.00 46 1018.8
20260503190023 60 37 0.9 6.1 0.00 0.00 0.00 45 1018.8
20260503184527 59 267 0.0 4.3 0.00 0.00 0.00 45 1018.8
20260503183026 59 301 0.0 7.8 0.00 0.00 0.00 44 1019.0
20260503181522 60 299 0.0 1.7 0.00 0.00 0.00 41 1019.2
20260503180028 60 224 0.0 4.3 0.00 0.00 0.00 42 1019.3
20260503174522 59 208 0.0 1.7 0.00 0.00 0.00 44 1019.4
20260503173019 59 319 0.0 5.2 0.00 0.00 0.00 46 1019.5
20260503171520 58 287 0.0 4.3 0.00 0.00 0.00 44 1019.8
20260503081600 34 158 0.0 0.0 0.00 0.00 0.00 67 1017.7
20260503071607 35 158 0.0 0.0 0.00 0.00 0.00 69 1017.1
20260503070105 36 158 0.0 0.0 0.00 0.00 0.00 69 1016.9
20260503054554 37 159 0.0 0.0 0.00 0.00 0.00 77 1016.9
20260503053041 37 158 0.0 0.0 0.00 0.00 0.00 76 1017.0
20260503051547 36 158 0.0 0.0 0.00 0.00 0.00 76 1016.9
20260503050038 37 158 0.0 0.0 0.00 0.00 0.00 76 1016.9
20260503044535 37 158 0.0 0.0 0.00 0.00 0.00 77 1016.8
20260503043032 38 158 0.0 0.0 0.00 0.00 0.00 77 1016.6
20260503041533 39 158 0.0 0.0 0.00 0.00 0.00 76 1016.5
20260503040027 40 158 0.0 0.0 0.00 0.00 0.00 75 1016.4
20260503034525 40 158 0.0 0.9 0.00 0.00 0.00 73 1016.3